Location: ???????
(55.4362°N, 38.1183°E)
Time: 02:01:00
(UTC+00:00)

METEOR M2 - Pass Details

Date: 05 December 2021
Orbit: 818 x 827 km, 98.4° (Epoch: 28 January)

Event Time Altitude Azimuth Distance (km) Brightness Sun altitude
Rises 14:00:32 0° 117° (ESE) 3,363 ? -8.0°
Reaches altitude 10° 14:03:18 10° 103° (ESE) 2,432 ? -8.4°
Maximum altitude 14:07:27 23° 52° (NE) 1,684 ? -8.9°
Drops below altitude 10° 14:11:36 10° 2° (N) 2,439 ? -9.4°
Sets 14:14:22 0° 349° (NNW) 3,374 ? -9.8°
